Novato, CA

7:06 AM PDT on September 28, 2016 (GMT -0700)
Gnoss

Weather History for KDVO - May, 2013

Change the Weather History Date:

Tuesday, May 7, 2013

  Actual Average (KAPC) Record (KAPC)
Temperature  
Mean Temperature 60 °F 58 °F  
Max Temperature 71 °F 71 °F 93 °F (2007)
Min Temperature 50 °F 44 °F 37 °F (2010)
Degree Days  
Heating Degree Days 4    
Month to date heating degree days  
Since 1 July heating degree days  
Cooling Degree Days 0    
Month to date cooling degree days  
Year to date cooling degree days  
Growing Degree Days 10 (Base 50)    
Moisture  
Dew Point 53 °F    
Average Humidity 79    
Maximum Humidity 100    
Minimum Humidity 41    
Precipitation  
Precipitation 0.00 in - 0.54 in (1988)
Month to date precipitation  
Year to date precipitation  
Sea Level Pressure  
Sea Level Pressure 30.01 in    
Wind  
Wind Speed 6 mph (NW)    
Max Wind Speed 13 mph    
Max Gust Speed 20 mph    
Visibility 10 miles    
Events      
T = Trace of Precipitation, MM = Missing Value Source: NWS Daily Summary

Daily Weather History Graph

Daily Weather History Graph

Search for Another Location

Airport or City:

Trip Planner

Search our weather history database for the weather conditions in past years. The results will help you decide how hot, cold, wet, or windy it might be!

Date:

Astronomy

May. 07, 2013 Rise Set
Actual Time 6:06 AM PDT 8:07 PM PDT
Civil Twilight 5:37 AM PDT 8:36 PM PDT
Nautical Twilight 5:02 AM PDT 9:11 PM PDT
Astronomical Twilight 4:24 AM PDT 9:49 PM PDT
Moon 4:42 AM PDT (5/7) 6:13 PM PDT (5/7)
Length of Visible Light 14h 58m
Length of Day
14h 00m
Waning Crescent, 5% of the Moon is Illuminated
May 7
Waning Crescent
May 9
New
May 17
First Quarter
May 24
Full
May 31
Last Quarter

Hourly Weather History & Observations

Time (PDT) Temp. Dew Point Humidity Pressure Visibility Wind Dir Wind Speed Gust Speed Precip Events Conditions
12:15 AM 57.2 °F 55.4 °F 94% 29.98 in 10.0 mi North 4.6 mph - N/A   Overcast
12:35 AM 57.2 °F 55.4 °F 94% 29.99 in 10.0 mi North 3.5 mph - N/A   Overcast
1:15 AM 55.4 °F 55.4 °F 100% 29.99 in 10.0 mi North 5.8 mph - N/A   Partly Cloudy
1:35 AM 53.6 °F 53.6 °F 100% 29.98 in 10.0 mi NNW 5.8 mph - N/A   Clear
1:55 AM 53.6 °F 53.6 °F 100% 29.98 in 10.0 mi NNW 6.9 mph - N/A   Clear
2:15 AM 53.6 °F 53.6 °F 100% 29.98 in 10.0 mi Calm Calm - N/A   Clear
2:35 AM 53.6 °F 53.6 °F 100% 29.98 in 10.0 mi Calm Calm - N/A   Clear
2:55 AM 55.4 °F 55.4 °F 100% 29.98 in 10.0 mi WNW 4.6 mph - N/A   Scattered Clouds
3:15 AM 55.4 °F 55.4 °F 100% 29.98 in 10.0 mi West 4.6 mph - N/A   Scattered Clouds
3:35 AM 55.4 °F 55.4 °F 100% 29.98 in 10.0 mi NW 5.8 mph - N/A   Mostly Cloudy
3:55 AM 55.4 °F 55.4 °F 100% 29.99 in 10.0 mi Calm Calm - N/A   Mostly Cloudy
4:15 AM 55.4 °F 55.4 °F 100% 29.99 in 10.0 mi NW 6.9 mph - N/A   Scattered Clouds
4:35 AM 55.4 °F 55.4 °F 100% 29.99 in 10.0 mi NW 6.9 mph - N/A   Mostly Cloudy
4:55 AM 55.4 °F 55.4 °F 100% 29.99 in 10.0 mi NW 8.1 mph - N/A   Overcast
5:15 AM 57.2 °F 55.4 °F 94% 29.99 in 10.0 mi NW 8.1 mph - N/A   Overcast
5:35 AM 57.2 °F 55.4 °F 94% 29.99 in 10.0 mi NW 6.9 mph - N/A   Overcast
5:55 AM 55.4 °F 55.4 °F 100% 30.00 in 10.0 mi NW 5.8 mph - N/A   Overcast
6:15 AM 57.2 °F 55.4 °F 94% 30.00 in 9.0 mi NW 5.8 mph - N/A   Overcast
6:35 AM 57.2 °F 55.4 °F 94% 30.00 in 8.0 mi NW 6.9 mph - N/A   Mostly Cloudy
6:55 AM 57.2 °F 55.4 °F 94% 30.01 in 8.0 mi NW 9.2 mph - N/A   Overcast
7:15 AM 57.2 °F 55.4 °F 94% 30.01 in 8.0 mi NW 8.1 mph - N/A   Mostly Cloudy
7:35 AM 57.2 °F 55.4 °F 94% 30.02 in 9.0 mi NW 6.9 mph - N/A   Mostly Cloudy
7:55 AM 57.2 °F 57.2 °F 100% 30.02 in 9.0 mi NNW 5.8 mph - N/A   Mostly Cloudy
8:15 AM 59.0 °F 55.4 °F 88% 30.02 in 9.0 mi NW 6.9 mph - N/A   Mostly Cloudy
8:35 AM 59.0 °F 55.4 °F 88% 30.03 in 8.0 mi NNW 3.5 mph - N/A   Overcast
8:55 AM 59.0 °F 55.4 °F 88% 30.03 in 10.0 mi NW 3.5 mph - N/A   Mostly Cloudy
9:15 AM 60.8 °F 57.2 °F 88% 30.04 in 10.0 mi North 4.6 mph - N/A   Mostly Cloudy
9:35 AM 60.8 °F 55.4 °F 82% 30.04 in 10.0 mi NNW 4.6 mph - N/A   Overcast
9:55 AM 62.6 °F 55.4 °F 77% 30.04 in 9.0 mi WSW 3.5 mph - N/A   Mostly Cloudy
10:15 AM 64.4 °F 55.4 °F 73% 30.04 in 10.0 mi NW 4.6 mph - N/A   Mostly Cloudy
10:55 AM 64.4 °F 53.6 °F 68% 30.04 in 10.0 mi WSW 8.1 mph - N/A   Mostly Cloudy
11:15 AM 66.2 °F 51.8 °F 60% 30.04 in 10.0 mi WNW 5.8 mph - N/A   Scattered Clouds
11:35 AM 66.2 °F 50.0 °F 56% 30.04 in 10.0 mi West 5.8 mph - N/A   Scattered Clouds
11:55 AM 68.0 °F 48.2 °F 49% 30.04 in 10.0 mi South 6.9 mph - N/A   Mostly Cloudy
12:15 PM 66.2 °F 55.4 °F 68% 30.04 in 9.0 mi ESE 5.8 mph - N/A   Overcast
12:35 PM 66.2 °F 53.6 °F 64% 30.04 in 10.0 mi South 3.5 mph - N/A   Overcast
12:55 PM 66.2 °F 51.8 °F 60% 30.03 in 10.0 mi Calm Calm - N/A   Overcast
1:15 PM 68.0 °F 48.2 °F 49% 30.02 in 10.0 mi SW 10.4 mph - N/A   Overcast
1:35 PM 68.0 °F 48.2 °F 49% 30.02 in 10.0 mi SW 12.7 mph - N/A   Overcast
1:55 PM 71.6 °F 48.2 °F 43% 30.02 in 10.0 mi SSW 10.4 mph 16.1 mph N/A   Mostly Cloudy
2:15 PM 71.6 °F 48.2 °F 43% 30.02 in 10.0 mi SW 10.4 mph 17.3 mph N/A   Mostly Cloudy
2:35 PM 71.6 °F 48.2 °F 43% 30.01 in 10.0 mi SW 9.2 mph 19.6 mph N/A   Overcast
2:55 PM 71.6 °F 48.2 °F 43% 30.01 in 10.0 mi SW 10.4 mph 16.1 mph N/A   Overcast
3:15 PM 71.6 °F 46.4 °F 41% 30.01 in 10.0 mi SSW 10.4 mph - N/A   Overcast
3:35 PM 71.6 °F 46.4 °F 41% 30.00 in 10.0 mi WSW 11.5 mph 16.1 mph N/A   Mostly Cloudy
3:55 PM 71.6 °F 46.4 °F 41% 30.00 in 10.0 mi WSW 8.1 mph - N/A   Partly Cloudy
4:15 PM 71.6 °F 50.0 °F 46% 29.99 in 10.0 mi West 10.4 mph - N/A   Scattered Clouds
4:35 PM 71.6 °F 50.0 °F 46% 29.99 in 10.0 mi WSW 10.4 mph - N/A   Partly Cloudy
4:55 PM 71.6 °F 50.0 °F 46% 29.99 in 10.0 mi WSW 10.4 mph 16.1 mph N/A   Clear
5:15 PM 69.8 °F 50.0 °F 49% 29.99 in 10.0 mi West 10.4 mph - N/A   Clear
5:35 PM 69.8 °F 50.0 °F 49% 30.00 in 10.0 mi West 10.4 mph - N/A   Clear
5:55 PM 68.0 °F 51.8 °F 56% 30.00 in 10.0 mi WNW 8.1 mph 17.3 mph N/A   Clear
6:15 PM 68.0 °F 50.0 °F 52% 30.00 in 10.0 mi West 8.1 mph - N/A   Clear
6:35 PM 66.2 °F 48.2 °F 52% 30.00 in 10.0 mi West 4.6 mph - N/A   Clear
6:55 PM 66.2 °F 48.2 °F 52% 30.01 in 10.0 mi Calm Calm - N/A   Clear
7:15 PM 64.4 °F 48.2 °F 56% 30.01 in 10.0 mi ESE 4.6 mph - N/A   Clear
7:35 PM 59.0 °F 55.4 °F 88% 30.02 in 10.0 mi North 12.7 mph 17.3 mph N/A   Clear
7:55 PM 57.2 °F 55.4 °F 94% 30.02 in 10.0 mi North 6.9 mph - N/A   Clear
8:15 PM 55.4 °F 55.4 °F 100% 30.03 in 10.0 mi North 11.5 mph - N/A   Clear
8:35 PM 55.4 °F 55.4 °F 100% 30.04 in 10.0 mi North 10.4 mph - N/A   Clear
8:55 PM 53.6 °F 53.6 °F 100% 30.04 in 10.0 mi North 8.1 mph - N/A   Clear
9:15 PM 53.6 °F 53.6 °F 100% 30.04 in 10.0 mi NNW 8.1 mph - N/A   Clear
9:35 PM 53.6 °F 53.6 °F 100% 30.05 in 10.0 mi NNW 5.8 mph - N/A   Clear
9:55 PM 51.8 °F 51.8 °F 100% 30.05 in 10.0 mi Calm Calm - N/A   Clear
10:15 PM 51.8 °F 51.8 °F 100% 30.04 in 10.0 mi ENE 3.5 mph - N/A   Clear
10:35 PM 51.8 °F 51.8 °F 100% 30.06 in 10.0 mi North 8.1 mph - N/A   Clear
10:55 PM 50.0 °F 50.0 °F 100% 30.06 in 10.0 mi NW 3.5 mph - N/A   Clear
11:15 PM 50.0 °F 50.0 °F 100% 30.06 in 10.0 mi NE 3.5 mph - N/A   Clear
11:35 PM 50.0 °F 50.0 °F 100% 30.06 in 10.0 mi Calm Calm - N/A   Clear
11:55 PM 50.0 °F 50.0 °F 100% 30.06 in 10.0 mi NE 4.6 mph - N/A   Clear